14-12-2023, 00:00:01,    304,    1.6,    1.2,   0.00,   0.00, 1013.7,    0.6, -999.0
14-12-2023, 00:00:11,    304,    1.1,    1.2,   0.00,   0.00, 1013.7,    0.7, -999.0
14-12-2023, 00:00:21,    304,    0.8,    1.2,   0.00,   0.00, 1013.7,    0.8, -999.0
14-12-2023, 00:00:31,    336,    1.7,    1.1,   0.00,   0.00, 1013.7,    0.7, -999.0
14-12-2023, 00:00:41,    335,    1.2,    1.1,   0.00,   0.00, 1013.7,    1.0, -999.0
14-12-2023, 00:00:51,    335,    0.9,    1.2,   0.00,   0.00, 1013.7,    0.7, -999.0
14-12-2023, 00:01:01,    323,    1.4,    1.1,   0.00,   0.00, 1013.7,    1.2, -999.0
14-12-2023, 00:01:11,    323,    0.5,    1.2,   0.00,   0.00, 1013.7,    1.0, -999.0
14-12-2023, 00:01:21,    323,    0.0,    1.0,   0.00,   0.00, 1013.6,    0.8, -999.0
14-12-2023, 00:01:31,    323,    0.0,    1.1,   0.00,   0.00, 1013.6,    0.5, -999.0
14-12-2023, 00:01:41,    323,    0.9,    1.2,   0.00,   0.00, 1013.7,    0.3, -999.0
14-12-2023, 00:01:51,    323,    0.4,    1.1,   0.00,   0.00, 1013.7,    1.0, -999.0
14-12-2023, 00:02:01,    299,    1.2,    1.1,   0.00,   0.00, 1013.7,    0.4, -999.0
14-12-2023, 00:02:11,    289,    0.7,    1.1,   0.00,   0.00, 1013.7,    1.1, -999.0
14-12-2023, 00:02:21,    308,    1.0,    1.1,   0.00,   0.00, 1013.7,    0.4, -999.0
14-12-2023, 00:02:31,    321,    0.8,    1.1,   0.00,   0.00, 1013.7,    1.1, -999.0
14-12-2023, 00:02:41,    324,    2.1,    1.1,   0.00,   0.00, 1013.7,    1.2, -999.0
14-12-2023, 00:02:51,    324,    1.9,    1.1,   0.00,   0.00, 1013.7,    1.2, -999.0
14-12-2023, 00:03:01,    311,    1.6,    1.1,   0.00,   0.00, 1013.7,    0.7, -999.0
14-12-2023, 00:03:11,    311,    0.6,    1.1,   0.00,   0.00, 1013.7,    1.0, -999.0
14-12-2023, 00:03:21,    311,    0.1,    1.1,   0.00,   0.00, 1013.7,    0.7, -999.0
14-12-2023, 00:03:31,    311,    0.1,    1.0,   0.00,   0.00, 1013.7,    0.7, -999.0
14-12-2023, 00:03:41,    320,    1.2,    1.1,   0.00,   0.00, 1013.7,    0.8, -999.0
14-12-2023, 00:03:51,    320,    1.5,    1.0,   0.00,   0.00, 1013.7,    1.0, -999.0
14-12-2023, 00:04:01,    320,    0.6,    1.0,   0.00,   0.00, 1013.7,    0.9, -999.0
14-12-2023, 00:04:11,    319,    0.0,    0.9,   0.00,   0.00, 1013.7,    0.9, -999.0
14-12-2023, 00:04:21,    320,    0.1,    1.0,   0.00,   0.00, 1013.7,    0.7, -999.0
14-12-2023, 00:04:31,    320,    0.4,    1.0,   0.00,   0.00, 1013.7,    1.0, -999.0
14-12-2023, 00:04:41,    320,    0.0,    0.9,   0.00,   0.00, 1013.6,    0.9, -999.0
14-12-2023, 00:04:51,    310,    0.2,    0.9,   0.00,   0.00, 1013.6,    1.0, -999.0
14-12-2023, 00:05:00,    306,    1.6,    1.1,   0.00,   0.00, 1013.7,    0.7, -999.0
14-12-2023, 00:05:11,    339,    1.6,    1.1,   0.00,   0.00, 1013.7,    0.8, -999.0
14-12-2023, 00:05:21,    338,    2.4,    1.0,   0.00,   0.00, 1013.7,    1.0, -999.0
14-12-2023, 00:05:30,    337,    1.3,    1.0,   0.00,   0.00, 1013.7,    0.9, -999.0
14-12-2023, 00:05:41,    337,    1.0,    1.0,   0.00,   0.00, 1013.7,    0.6, -999.0
14-12-2023, 00:05:51,    323,    1.8,    1.1,   0.00,   0.00, 1013.7,    0.9, -999.0
14-12-2023, 00:06:01,    323,    0.8,    1.0,   0.00,   0.00, 1013.7,    0.7, -999.0
14-12-2023, 00:06:10,    322,    0.4,    1.0,   0.00,   0.00, 1013.7,    0.5, -999.0
14-12-2023, 00:06:21,    323,    0.0,    1.0,   0.00,   0.00, 1013.6,    0.6, -999.0
14-12-2023, 00:06:31,    322,    0.0,    1.0,   0.00,   0.00, 1013.7,    0.4, -999.0
14-12-2023, 00:06:40,    323,    0.0,    1.0,   0.00,   0.00, 1013.6,    0.8, -999.0
14-12-2023, 00:06:50,    323,    0.4,    1.0,   0.00,   0.00, 1013.7,    0.7, -999.0
14-12-2023, 00:07:01,    322,    0.6,    1.1,   0.00,   0.00, 1013.7,    0.6, -999.0
14-12-2023, 00:07:10,    323,    0.4,    1.1,   0.00,   0.00, 1013.7,    0.6, -999.0
14-12-2023, 00:07:20,    318,    1.5,    1.1,   0.00,   0.00, 1013.8,    0.8, -999.0
14-12-2023, 00:07:30,    318,    1.3,    1.0,   0.00,   0.00, 1013.8,    0.7, -999.0
14-12-2023, 00:07:41,    319,    0.2,    0.9,   0.00,   0.00, 1013.7,    1.1, -999.0
14-12-2023, 00:07:50,    319,    1.5,    1.0,   0.00,   0.00, 1013.8,    0.7, -999.0
14-12-2023, 00:08:00,    318,    1.1,    1.0,   0.00,   0.00, 1013.8,    0.5, -999.0
14-12-2023, 00:08:10,    318,    1.2,    1.0,   0.00,   0.00, 1013.8,    0.8, -999.0
14-12-2023, 00:08:20,    318,    0.2,    1.0,   0.00,   0.00, 1013.8,    1.0, -999.0
14-12-2023, 00:08:30,    318,    0.1,    0.9,   0.00,   0.00, 1013.7,    0.8, -999.0
14-12-2023, 00:08:40,    323,    1.0,    0.9,   0.00,   0.00, 1013.8,    0.7, -999.0
14-12-2023, 00:08:50,    323,    0.9,    0.9,   0.00,   0.00, 1013.8,    1.1, -999.0
14-12-2023, 00:09:00,    323,    0.1,    0.9,   0.00,   0.00, 1013.8,    0.6, -999.0
14-12-2023, 00:09:10,    323,    0.5,    0.9,   0.00,   0.00, 1013.9,    0.5, -999.0
14-12-2023, 00:09:20,    322,    0.9,    0.9,   0.00,   0.00, 1013.8,    0.4, -999.0
14-12-2023, 00:09:30,    322,    0.1,    0.9,   0.00,   0.00, 1013.7,    0.7, -999.0
14-12-2023, 00:09:40,    322,    0.0,    0.9,   0.00,   0.00, 1013.8,    1.1, -999.0
14-12-2023, 00:09:50,    322,    0.2,    0.9,   0.00,   0.00, 1013.8,    0.7, -999.0
14-12-2023, 00:10:00,    322,    0.3,    0.9,   0.00,   0.00, 1013.8,    0.8, -999.0
14-12-2023, 00:10:10,    319,    1.5,    0.8,   0.00,   0.00, 1013.8,    1.0, -999.0
14-12-2023, 00:10:20,    318,    2.4,    0.9,   0.00,   0.00, 1013.9,    0.6, -999.0
14-12-2023, 00:10:30,    321,    1.1,    0.9,   0.00,   0.00, 1013.8,    0.9, -999.0
14-12-2023, 00:10:40,    321,    0.0,    0.8,   0.00,   0.00, 1013.7,    0.6, -999.0
14-12-2023, 00:10:50,    318,    0.3,    0.8,   0.00,   0.00, 1013.8,    0.6, -999.0
14-12-2023, 00:11:00,    318,    0.5,    0.9,   0.00,   0.00, 1013.9,    1.0, -999.0
14-12-2023, 00:11:10,    318,    0.0,    0.8,   0.00,   0.00, 1013.8,    0.7, -999.0
14-12-2023, 00:11:20,    317,    1.6,    0.9,   0.00,   0.00, 1013.9,    0.9, -999.0
14-12-2023, 00:11:30,    316,    1.3,    0.9,   0.00,   0.00, 1013.9,    0.7, -999.0
14-12-2023, 00:11:40,    331,    1.6,    0.9,   0.00,   0.00, 1013.9,    0.9, -999.0
14-12-2023, 00:11:50,    323,    2.5,    0.9,   0.00,   0.00, 1013.9,    0.7, -999.0
14-12-2023, 00:12:00,    320,    1.6,    0.8,   0.00,   0.00, 1013.9,    0.8, -999.0
14-12-2023, 00:12:10,    324,    1.5,    0.8,   0.00,   0.00, 1013.9,    1.1, -999.0
14-12-2023, 00:12:20,    323,    0.9,    0.8,   0.00,   0.00, 1013.9,    0.8, -999.0
14-12-2023, 00:12:30,    323,    0.6,    0.8,   0.00,   0.00, 1013.8,    0.9, -999.0
14-12-2023, 00:12:39,    323,    0.0,    0.6,   0.00,   0.00, 1013.7,    0.5, -999.0
14-12-2023, 00:12:50,    329,    1.6,    0.7,   0.00,   0.00, 1013.9,    1.0, -999.0
14-12-2023, 00:13:00,    329,    1.6,    0.8,   0.00,   0.00, 1013.9,    0.7, -999.0
14-12-2023, 00:13:10,    326,    2.1,    0.8,   0.00,   0.00, 1013.9,    0.7, -999.0
14-12-2023, 00:13:20,    326,    1.9,    0.8,   0.00,   0.00, 1013.9,    0.5, -999.0
14-12-2023, 00:13:30,    311,    1.9,    0.8,   0.00,   0.00, 1013.9,    0.6, -999.0
14-12-2023, 00:13:40,    319,    1.9,    0.8,   0.00,   0.00, 1013.9,    0.9, -999.0
14-12-2023, 00:13:49,    322,    1.1,    0.8,   0.00,   0.00, 1013.9,    0.6, -999.0
14-12-2023, 00:14:00,    323,    2.7,    0.8,   0.00,   0.00, 1013.9,    0.8, -999.0
14-12-2023, 00:14:10,    322,    2.2,    0.7,   0.00,   0.00, 1013.9,    0.9, -999.0
14-12-2023, 00:14:19,    323,    0.6,    0.8,   0.00,   0.00, 1013.9,    0.9, -999.0
14-12-2023, 00:14:29,    323,    0.0,    0.7,   0.00,   0.00, 1013.8,    1.4, -999.0
14-12-2023, 00:14:40,    326,    0.3,    0.7,   0.00,   0.00, 1013.8,    0.6, -999.0
14-12-2023, 00:14:50,    326,    0.2,    0.7,   0.00,   0.00, 1013.8,    0.4, -999.0
14-12-2023, 00:14:59,    301,    1.0,    0.7,   0.00,   0.00, 1013.8,    0.6, -999.0
14-12-2023, 00:15:09,    317,    1.8,    0.8,   0.00,   0.00, 1013.9,    0.9, -999.0
14-12-2023, 00:15:20,    319,    1.8,    0.9,   0.00,   0.00, 1013.9,    0.6, -999.0
14-12-2023, 00:15:29,    319,    0.9,    0.8,   0.00,   0.00, 1013.9,    0.6, -999.0
14-12-2023, 00:15:39,    319,    0.8,    0.7,   0.00,   0.00, 1013.9,    0.8, -999.0
14-12-2023, 00:15:49,    319,    0.5,    0.7,   0.00,   0.00, 1013.9,    1.0, -999.0
14-12-2023, 00:15:59,    319,    0.1,    0.7,   0.00,   0.00, 1013.9,    0.7, -999.0
14-12-2023, 00:16:09,    319,    0.2,    0.6,   0.00,   0.00, 1013.8,    1.0, -999.0
14-12-2023, 00:16:19,    319,    0.8,    0.7,   0.00,   0.00, 1013.9,    0.6, -999.0
14-12-2023, 00:16:29,    320,    1.1,    0.7,   0.00,   0.00, 1014.0,    0.9, -999.0
14-12-2023, 00:16:39,    318,    1.3,    0.7,   0.00,   0.00, 1014.0,    0.8, -999.0
14-12-2023, 00:16:49,    318,    0.4,    0.8,   0.00,   0.00, 1014.0,    0.8, -999.0
14-12-2023, 00:16:59,    320,    0.2,    0.7,   0.00,   0.00, 1013.9,    1.0, -999.0
14-12-2023, 00:17:09,    286,    0.1,    0.6,   0.00,   0.00, 1013.8,    0.7, -999.0
14-12-2023, 00:17:19,    286,    0.0,    0.7,   0.00,   0.00, 1013.8,    0.9, -999.0
14-12-2023, 00:17:29,    313,    0.3,    0.7,   0.00,   0.00, 1013.9,    0.3, -999.0
14-12-2023, 00:17:39,    313,    0.5,    0.8,   0.00,   0.00, 1014.0,    0.8, -999.0
14-12-2023, 00:17:49,    313,    0.5,    0.8,   0.00,   0.00, 1014.0,    0.6, -999.0
14-12-2023, 00:17:59,    311,    0.5,    0.7,   0.00,   0.00, 1013.9,    1.0, -999.0
14-12-2023, 00:18:09,    311,    0.2,    0.7,   0.00,   0.00, 1013.9,    0.5, -999.0
14-12-2023, 00:18:19,    310,    0.0,    0.7,   0.00,   0.00, 1013.9,    0.4, -999.0
14-12-2023, 00:18:29,    310,    0.0,    0.7,   0.00,   0.00, 1013.8,    0.8, -999.0
14-12-2023, 00:18:39,    311,    0.2,    0.8,   0.00,   0.00, 1013.9,    0.7, -999.0
14-12-2023, 00:18:49,    311,    0.0,    0.6,   0.00,   0.00, 1013.9,    0.3, -999.0
14-12-2023, 00:18:59,    310,    0.1,    0.7,   0.00,   0.00, 1013.9,    0.6, -999.0
14-12-2023, 00:19:09,    310,    0.4,    0.7,   0.00,   0.00, 1013.9,    0.8, -999.0
14-12-2023, 00:19:19,    312,    0.0,    0.7,   0.00,   0.00, 1013.8,    1.4, -999.0
14-12-2023, 00:19:29,    312,    0.1,    0.7,   0.00,   0.00, 1013.8,    0.3, -999.0
14-12-2023, 00:19:39,    283,    0.9,    0.7,   0.00,   0.00, 1013.9,    0.5, -999.0
14-12-2023, 00:19:49,    324,    1.0,    0.8,   0.00,   0.00, 1013.9,    0.7, -999.0
14-12-2023, 00:19:59,     24,    1.8,    0.7,   0.00,   0.00, 1014.0,    0.7, -999.0
14-12-2023, 00:20:09,    328,    0.8,    0.7,   0.00,   0.00, 1013.9,    0.8, -999.0
14-12-2023, 00:20:19,    318,    1.7,    0.7,   0.00,   0.00, 1013.9,    0.7, -999.0
14-12-2023, 00:20:29,    347,    1.0,    0.8,   0.00,   0.00, 1013.9,    0.6, -999.0
14-12-2023, 00:20:39,    293,    1.4,    0.7,   0.00,   0.00, 1013.9,    0.8, -999.0
14-12-2023, 00:20:49,    285,    2.4,    0.7,   0.00,   0.00, 1013.9,    0.8, -999.0
14-12-2023, 00:20:58,    284,    1.1,    0.7,   0.00,   0.00, 1013.9,    0.6, -999.0
14-12-2023, 00:21:09,    308,    0.5,    0.7,   0.00,   0.00, 1013.9,    0.8, -999.0
14-12-2023, 00:21:19,    310,    0.8,    0.7,   0.00,   0.00, 1013.9,    0.8, -999.0
14-12-2023, 00:21:28,    329,    1.3,    0.7,   0.00,   0.00, 1013.9,    0.5, -999.0
14-12-2023, 00:21:39,    329,    1.8,    0.7,   0.00,   0.00, 1013.9,    0.6, -999.0
14-12-2023, 00:21:49,    329,    0.9,    0.7,   0.00,   0.00, 1013.9,    0.8, -999.0
14-12-2023, 00:21:59,    329,    0.4,    0.7,   0.00,   0.00, 1013.9,    1.0, -999.0
14-12-2023, 00:22:08,    329,    1.1,    0.6,   0.00,   0.00, 1013.9,    0.8, -999.0
14-12-2023, 00:22:19,    329,    1.1,    0.7,   0.00,   0.00, 1013.9,    0.7, -999.0
14-12-2023, 00:22:29,    328,    0.6,    0.7,   0.00,   0.00, 1013.9,    0.7, -999.0
14-12-2023, 00:22:38,    327,    0.5,    0.7,   0.00,   0.00, 1013.9,    0.9, -999.0
14-12-2023, 00:22:48,    328,    0.0,    0.6,   0.00,   0.00, 1013.8,    0.2, -999.0
14-12-2023, 00:22:59,    328,    0.3,    0.6,   0.00,   0.00, 1013.8,    0.5, -999.0
14-12-2023, 00:23:08,    328,    0.1,    0.7,   0.00,   0.00, 1013.9,    0.6, -999.0
14-12-2023, 00:23:18,    327,    0.2,    0.6,   0.00,   0.00, 1013.9,    0.7, -999.0
14-12-2023, 00:23:28,    328,    0.0,    0.6,   0.00,   0.00, 1013.8,    0.7, -999.0
14-12-2023, 00:23:39,    328,    0.0,    0.6,   0.00,   0.00, 1013.8,    0.9, -999.0
14-12-2023, 00:23:48,    328,    0.6,    0.7,   0.00,   0.00, 1013.9,    0.7, -999.0
14-12-2023, 00:23:58,    327,    0.0,    0.7,   0.00,   0.00, 1013.8,    0.5, -999.0
14-12-2023, 00:24:08,    327,    0.7,    0.7,   0.00,   0.00, 1013.9,    0.6, -999.0
14-12-2023, 00:24:18,    326,    0.2,    0.7,   0.00,   0.00, 1013.9,    0.9, -999.0
14-12-2023, 00:24:28,    326,    0.0,    0.6,   0.00,   0.00, 1013.8,    0.6, -999.0
14-12-2023, 00:24:38,    326,    0.0,    0.6,   0.00,   0.00, 1013.8,    0.8, -999.0
14-12-2023, 00:24:48,    326,    0.0,    0.6,   0.00,   0.00, 1013.8,    0.8, -999.0
14-12-2023, 00:24:58,    326,    0.1,    0.7,   0.00,   0.00, 1013.9,    0.7, -999.0
14-12-2023, 00:25:08,    326,    0.1,    0.6,   0.00,   0.00, 1013.9,    0.8, -999.0
14-12-2023, 00:25:18,    326,    0.0,    0.6,   0.00,   0.00, 1013.8,    0.5, -999.0
14-12-2023, 00:25:28,    326,    0.4,    0.6,   0.00,   0.00, 1013.9,    0.7, -999.0
14-12-2023, 00:25:38,    326,    0.3,    0.6,   0.00,   0.00, 1013.9,    0.6, -999.0
14-12-2023, 00:25:48,    326,    0.5,    0.5,   0.00,   0.00, 1013.9,    0.7, -999.0
14-12-2023, 00:25:58,    325,    1.2,    0.6,   0.00,   0.00, 1013.9,    0.6, -999.0
14-12-2023, 00:26:08,    325,    0.5,    0.6,   0.00,   0.00, 1013.9,    0.7, -999.0
14-12-2023, 00:26:18,    326,    0.0,    0.6,   0.00,   0.00, 1013.8,    0.7, -999.0
14-12-2023, 00:26:28,    325,    0.4,    0.6,   0.00,   0.00, 1013.9,    0.7, -999.0
14-12-2023, 00:26:38,    325,    0.6,    0.7,   0.00,   0.00, 1013.9,    0.6, -999.0
14-12-2023, 00:26:48,    325,    0.0,    0.6,   0.00,   0.00, 1013.8,    0.8, -999.0
14-12-2023, 00:26:58,    325,    0.0,    0.5,   0.00,   0.00, 1013.8,    0.7, -999.0
14-12-2023, 00:27:08,    317,    0.7,    0.6,   0.00,   0.00, 1013.8,    0.8, -999.0
14-12-2023, 00:27:18,    317,    0.5,    0.7,   0.00,   0.00, 1013.8,    0.7, -999.0
14-12-2023, 00:27:28,    316,    0.4,    0.7,   0.00,   0.00, 1013.9,    0.6, -999.0
14-12-2023, 00:27:38,    316,    0.5,    0.6,   0.00,   0.00, 1013.9,    0.6, -999.0
14-12-2023, 00:27:48,    317,    0.2,    0.6,   0.00,   0.00, 1013.8,    0.6, -999.0
14-12-2023, 00:27:58,    314,    0.7,    0.6,   0.00,   0.00, 1013.9,    0.8, -999.0
14-12-2023, 00:28:08,    314,    0.3,    0.6,   0.00,   0.00, 1013.9,    0.7, -999.0
14-12-2023, 00:28:18,    313,    0.4,    0.6,   0.00,   0.00, 1013.8,    0.9, -999.0
14-12-2023, 00:28:28,    314,    0.1,    0.6,   0.00,   0.00, 1013.8,    0.8, -999.0
14-12-2023, 00:28:38,    313,    0.0,    0.5,   0.00,   0.00, 1013.7,    0.8, -999.0
14-12-2023, 00:28:48,    313,    0.1,    0.5,   0.00,   0.00, 1013.8,    0.8, -999.0
14-12-2023, 00:28:58,    313,    0.6,    0.5,   0.00,   0.00, 1013.8,    0.6, -999.0
14-12-2023, 00:29:08,    313,    0.0,    0.5,   0.00,   0.00, 1013.7,    0.9, -999.0
14-12-2023, 00:29:17,    313,    0.0,    0.5,   0.00,   0.00, 1013.7,    0.4, -999.0
14-12-2023, 00:29:28,    313,    0.3,    0.6,   0.00,   0.00, 1013.8,    0.4, -999.0
14-12-2023, 00:29:38,    313,    0.7,    0.7,   0.00,   0.00, 1013.9,    0.8, -999.0
14-12-2023, 00:29:48,    313,    0.4,    0.6,   0.00,   0.00, 1013.8,    0.9, -999.0
14-12-2023, 00:29:57,    313,    0.2,    0.6,   0.00,   0.00, 1013.8,    0.6, -999.0
14-12-2023, 00:30:08,    313,    0.3,    0.5,   0.00,   0.00, 1013.8,    0.6, -999.0
14-12-2023, 00:30:18,    314,    0.1,    0.6,   0.00,   0.00, 1013.8,    0.6, -999.0
14-12-2023, 00:30:27,    313,    0.0,    0.5,   0.00,   0.00, 1013.7,    0.3, -999.0
14-12-2023, 00:30:37,    314,    0.0,    0.5,   0.00,   0.00, 1013.7,    0.9, -999.0
14-12-2023, 00:30:48,    313,    0.0,    0.5,   0.00,   0.00, 1013.8,    0.5, -999.0
14-12-2023, 00:30:57,    314,    0.0,    0.5,   0.00,   0.00, 1013.7,    0.7, -999.0
14-12-2023, 00:31:07,    313,    0.0,    0.5,   0.00,   0.00, 1013.7,    0.8, -999.0
14-12-2023, 00:31:18,    313,    0.4,    0.5,   0.00,   0.00, 1013.8,    0.7, -999.0
14-12-2023, 00:31:27,    313,    0.5,    0.6,   0.00,   0.00, 1013.9,    0.8, -999.0
14-12-2023, 00:31:37,    313,    0.0,    0.5,   0.00,   0.00, 1013.8,    0.4, -999.0
14-12-2023, 00:31:47,    313,    0.0,    0.5,   0.00,   0.00, 1013.8,    0.8, -999.0
14-12-2023, 00:31:58,    313,    0.0,    0.5,   0.00,   0.00, 1013.7,    0.8, -999.0
14-12-2023, 00:32:07,    313,    0.0,    0.5,   0.00,   0.00, 1013.8,    0.5, -999.0
14-12-2023, 00:32:17,    317,    0.0,    0.4,   0.00,   0.00, 1013.8,    0.7, -999.0
14-12-2023, 00:32:27,    318,    0.0,    0.5,   0.00,   0.00, 1013.8,    0.7, -999.0
14-12-2023, 00:32:37,    318,    0.0,    0.4,   0.00,   0.00, 1013.8,    0.7, -999.0
14-12-2023, 00:32:47,    317,    0.0,    0.5,   0.00,   0.00, 1013.8,    0.8, -999.0
14-12-2023, 00:32:57,    318,    0.0,    0.4,   0.00,   0.00, 1013.8,    0.7, -999.0
14-12-2023, 00:33:07,    318,    0.0,    0.4,   0.00,   0.00, 1013.8,    0.5, -999.0
14-12-2023, 00:33:17,    318,    0.0,    0.5,   0.00,   0.00, 1013.8,    0.7, -999.0
14-12-2023, 00:33:27,    318,    0.0,    0.4,   0.00,   0.00, 1013.8,    0.6, -999.0
14-12-2023, 00:33:37,    317,    0.0,    0.3,   0.00,   0.00, 1013.8,    0.5, -999.0
14-12-2023, 00:33:47,    317,    0.0,    0.4,   0.00,   0.00, 1013.8,    0.8, -999.0
14-12-2023, 00:33:57,    317,    0.0,    0.5,   0.00,   0.00, 1013.9,    0.3, -999.0
14-12-2023, 00:34:07,    317,    0.0,    0.4,   0.00,   0.00, 1013.8,    0.6, -999.0
14-12-2023, 00:34:17,    317,    0.0,    0.4,   0.00,   0.00, 1013.8,    0.6, -999.0
14-12-2023, 00:34:27,    317,    0.0,    0.4,   0.00,   0.00, 1013.8,    0.6, -999.0
14-12-2023, 00:34:37,    317,    0.0,    0.5,   0.00,   0.00, 1013.8,    0.6, -999.0
14-12-2023, 00:34:47,    317,    0.0,    0.5,   0.00,   0.00, 1013.8,    0.6, -999.0
14-12-2023, 00:34:57,    317,    0.0,    0.4,   0.00,   0.00, 1013.7,    0.8, -999.0
14-12-2023, 00:35:07,    318,    0.2,    0.5,   0.00,   0.00, 1013.8,    0.8, -999.0
14-12-2023, 00:35:17,    317,    0.0,    0.5,   0.00,   0.00, 1013.8,    0.7, -999.0
14-12-2023, 00:35:27,    317,    0.0,    0.4,   0.00,   0.00, 1013.7,    0.7, -999.0
14-12-2023, 00:35:37,    317,    0.0,    0.5,   0.00,   0.00, 1013.8,    0.4, -999.0
14-12-2023, 00:35:47,    317,    0.0,    0.4,   0.00,   0.00, 1013.7,    0.7, -999.0
14-12-2023, 00:35:57,    317,    0.0,    0.4,   0.00,   0.00, 1013.7,    0.7, -999.0
14-12-2023, 00:36:07,    317,    0.0,    0.5,   0.00,   0.00, 1013.7,    0.8, -999.0
14-12-2023, 00:36:17,    317,    0.0,    0.5,   0.00,   0.00, 1013.7,    0.6, -999.0
14-12-2023, 00:36:27,    317,    0.0,    0.4,   0.00,   0.00, 1013.7,    0.5, -999.0
14-12-2023, 00:36:37,    317,    0.0,    0.5,   0.00,   0.00, 1013.8,    0.7, -999.0
14-12-2023, 00:36:47,    317,    0.0,    0.5,   0.00,   0.00, 1013.8,    0.7, -999.0
14-12-2023, 00:36:57,    317,    0.0,    0.5,   0.00,   0.00, 1013.8,    0.8, -999.0
14-12-2023, 00:37:07,    317,    0.0,    0.4,   0.00,   0.00, 1013.7,    0.7, -999.0
14-12-2023, 00:37:17,    317,    0.0,    0.4,   0.00,   0.00, 1013.8,    0.6, -999.0
14-12-2023, 00:37:27,    317,    0.0,    0.4,   0.00,   0.00, 1013.7,    0.9, -999.0
14-12-2023, 00:37:36,    317,    0.0,    0.4,   0.00,   0.00, 1013.7,    0.7, -999.0
14-12-2023, 00:37:47,    317,    0.0,    0.4,   0.00,   0.00, 1013.7,    0.5, -999.0
14-12-2023, 00:37:57,    317,    0.0,    0.4,   0.00,   0.00, 1013.7,    0.5, -999.0
14-12-2023, 00:38:07,    317,    0.0,    0.4,   0.00,   0.00, 1013.8,    0.4, -999.0
14-12-2023, 00:38:16,    317,    0.1,    0.5,   0.00,   0.00, 1013.8,    0.7, -999.0
14-12-2023, 00:38:27,    317,    0.0,    0.4,   0.00,   0.00, 1013.8,    0.6, -999.0
14-12-2023, 00:38:37,    317,    0.0,    0.4,   0.00,   0.00, 1013.8,    0.5, -999.0
14-12-2023, 00:38:46,    317,    0.0,    0.4,   0.00,   0.00, 1013.8,    0.5, -999.0
14-12-2023, 00:38:56,    317,    0.0,    0.3,   0.00,   0.00, 1013.8,    0.5, -999.0
14-12-2023, 00:39:07,    317,    0.0,    0.4,   0.00,   0.00, 1013.8,    0.8, -999.0
14-12-2023, 00:39:16,    317,    0.0,    0.4,   0.00,   0.00, 1013.8,    0.8, -999.0
14-12-2023, 00:39:26,    317,    0.0,    0.4,   0.00,   0.00, 1013.8,    0.5, -999.0
14-12-2023, 00:39:36,    317,    0.0,    0.3,   0.00,   0.00, 1013.8,    0.7, -999.0
14-12-2023, 00:39:47,    317,    0.3,    0.5,   0.00,   0.00, 1013.9,    0.8, -999.0
14-12-2023, 00:39:56,    317,    0.0,    0.4,   0.00,   0.00, 1013.8,    0.6, -999.0
14-12-2023, 00:40:06,    316,    0.0,    0.4,   0.00,   0.00, 1013.8,    0.7, -999.0
14-12-2023, 00:40:16,    316,    0.0,    0.4,   0.00,   0.00, 1013.9,    0.7, -999.0
14-12-2023, 00:40:26,    317,    0.0,    0.4,   0.00,   0.00, 1013.9,    0.6, -999.0
14-12-2023, 00:40:36,    317,    0.0,    0.5,   0.00,   0.00, 1013.9,    0.6, -999.0
14-12-2023, 00:40:46,    317,    0.0,    0.4,   0.00,   0.00, 1013.9,    0.6, -999.0
14-12-2023, 00:40:56,    316,    0.0,    0.3,   0.00,   0.00, 1013.9,    0.9, -999.0
14-12-2023, 00:41:06,    317,    0.0,    0.4,   0.00,   0.00, 1013.9,    0.9, -999.0
14-12-2023, 00:41:16,    317,    0.0,    0.4,   0.00,   0.00, 1013.9,    0.8, -999.0
14-12-2023, 00:41:26,    317,    0.0,    0.4,   0.00,   0.00, 1013.9,    0.8, -999.0
14-12-2023, 00:41:36,    317,    0.0,    0.5,   0.00,   0.00, 1013.9,    0.7, -999.0
14-12-2023, 00:41:46,    317,    0.0,    0.4,   0.00,   0.00, 1013.9,    0.5, -999.0
14-12-2023, 00:41:56,    316,    0.0,    0.4,   0.00,   0.00, 1013.9,    0.9, -999.0
14-12-2023, 00:42:06,    317,    0.0,    0.4,   0.00,   0.00, 1013.9,    0.7, -999.0
14-12-2023, 00:42:16,    317,    0.0,    0.3,   0.00,   0.00, 1013.9,    0.7, -999.0
14-12-2023, 00:42:26,    316,    0.0,    0.4,   0.00,   0.00, 1013.9,    0.8, -999.0
14-12-2023, 00:42:36,    316,    0.0,    0.4,   0.00,   0.00, 1013.9,    0.8, -999.0
14-12-2023, 00:42:46,    316,    0.0,    0.4,   0.00,   0.00, 1013.9,    1.2, -999.0
14-12-2023, 00:42:56,    317,    0.0,    0.5,   0.00,   0.00, 1013.9,    0.1, -999.0
14-12-2023, 00:43:06,    317,    0.0,    0.4,   0.00,   0.00, 1013.9,    0.3, -999.0
14-12-2023, 00:43:16,    316,    0.0,    0.2,   0.00,   0.00, 1013.9,    1.0, -999.0
14-12-2023, 00:43:26,    316,    0.0,    0.4,   0.00,   0.00, 1013.9,    0.6, -999.0
14-12-2023, 00:43:36,    316,    0.0,    0.4,   0.00,   0.00, 1013.9,    0.6, -999.0
14-12-2023, 00:43:46,    316,    0.1,    0.4,   0.00,   0.00, 1014.0,    1.1, -999.0
14-12-2023, 00:43:56,    316,    0.0,    0.4,   0.00,   0.00, 1013.9,    0.7, -999.0
14-12-2023, 00:44:06,    316,    0.2,    0.4,   0.00,   0.00, 1014.1,    0.8, -999.0
14-12-2023, 00:44:16,    316,    0.0,    0.4,   0.00,   0.00, 1013.9,    0.4, -999.0
14-12-2023, 00:44:26,    315,    0.0,    0.3,   0.00,   0.00, 1013.9,    1.1, -999.0
14-12-2023, 00:44:36,    315,    0.0,    0.4,   0.00,   0.00, 1013.9,    0.5, -999.0
14-12-2023, 00:44:46,    315,    0.0,    0.3,   0.00,   0.00, 1013.9,    0.5, -999.0
14-12-2023, 00:44:56,    316,    0.0,    0.3,   0.00,   0.00, 1013.9,    1.0, -999.0
14-12-2023, 00:45:06,    316,    0.0,    0.4,   0.00,   0.00, 1013.9,    1.0, -999.0
14-12-2023, 00:45:16,    316,    0.0,    0.4,   0.00,   0.00, 1013.9,    0.5, -999.0
14-12-2023, 00:45:25,    316,    0.0,    0.4,   0.00,   0.00, 1013.9,    0.5, -999.0
14-12-2023, 00:45:36,    316,    0.0,    0.3,   0.00,   0.00, 1013.9,    0.5, -999.0
14-12-2023, 00:45:46,    316,    0.0,    0.3,   0.00,   0.00, 1013.9,    0.5, -999.0
14-12-2023, 00:45:56,    315,    0.0,    0.3,   0.00,   0.00, 1014.0,    0.6, -999.0
14-12-2023, 00:46:05,    316,    0.2,    0.4,   0.00,   0.00, 1014.0,    0.6, -999.0
14-12-2023, 00:46:16,    316,    0.1,    0.4,   0.00,   0.00, 1014.0,    1.1, -999.0
14-12-2023, 00:46:26,    315,    0.1,    0.4,   0.00,   0.00, 1014.0,    1.1, -999.0
14-12-2023, 00:46:35,    316,    0.0,    0.3,   0.00,   0.00, 1013.9,    0.8, -999.0
14-12-2023, 00:46:45,    315,    0.0,    0.3,   0.00,   0.00, 1013.9,    1.0, -999.0